FW2272 Weather Reports


Display with metric or nautical units.
time (UTC)temp
F
wind
direction
speed
MPH
gust
MPH
rain 1hr
in
rain 24hr
in
rain mn
in
humidity
%
barometer
mb
20260504231212 80 61 9.0 0.0 0.00 0.00 0.00 63 1012.2
20260504230711 80 126 6.0 0.0 0.00 0.00 0.00 63 1012.5
20260504230212 80 209 5.0 0.0 0.00 0.00 0.00 63 1012.5
20260504225717 80 39 6.0 0.0 0.00 0.00 0.00 64 1012.5
20260504225212 80 283 6.0 0.0 0.00 0.00 0.00 65 1012.5
20260504224710 80 169 5.0 0.0 0.00 0.00 0.00 64 1012.9
20260504224212 80 195 4.0 0.0 0.00 0.00 0.00 65 1012.9
20260504223712 79 16 5.0 0.0 0.00 0.00 0.00 65 1012.9
20260504223212 79 143 7.0 0.0 0.00 0.00 0.00 64 1012.9
20260504222715 79 288 8.0 0.0 0.00 0.00 0.00 64 1012.9
20260504222213 80 104 7.0 0.0 0.00 0.00 0.00 63 1012.9
20260504221714 80 108 6.0 0.0 0.00 0.00 0.00 64 1012.9
20260504221212 80 112 7.0 0.0 0.00 0.00 0.00 64 1012.9
20260504220711 80 107 4.0 0.0 0.00 0.00 0.00 63 1012.9
20260504220215 80 343 3.0 0.0 0.00 0.00 0.00 65 1012.9
20260504215711 80 186 4.0 0.0 0.00 0.00 0.00 64 1012.9
20260504215210 80 223 3.0 0.0 0.00 0.00 0.00 63 1012.9
20260504214713 80 70 6.0 0.0 0.00 0.00 0.00 63 1012.9
20260504214211 79 104 5.0 0.0 0.00 0.00 0.00 65 1012.9
20260504213714 79 243 6.0 0.0 0.00 0.00 0.00 65 1013.2
20260504213213 79 205 7.0 0.0 0.00 0.00 0.00 65 1013.2
20260504212711 80 22 8.0 0.0 0.00 0.00 0.00 64 1013.2
20260504212214 80 273 6.0 0.0 0.00 0.00 0.00 64 1013.5
20260504211713 80 143 6.0 0.0 0.00 0.00 0.00 64 1013.5
20260504211214 80 136 9.0 0.0 0.00 0.00 0.00 63 1013.5
20260504210713 80 96 5.0 0.0 0.00 0.00 0.00 64 1013.5
20260504210211 79 190 5.0 0.0 0.00 0.00 0.00 66 1013.9
20260504205713 79 75 7.0 0.0 0.00 0.00 0.00 65 1013.9
20260504205212 79 208 6.0 0.0 0.00 0.00 0.00 65 1013.9
20260504204711 79 183 4.0 0.0 0.00 0.00 0.00 65 1013.9
20260504204214 79 107 7.0 0.0 0.00 0.00 0.00 65 1014.2
20260504203710 79 178 6.0 0.0 0.00 0.00 0.00 64 1014.2
20260504203215 79 177 6.0 0.0 0.00 0.00 0.00 66 1014.2
20260504202714 79 102 4.0 0.0 0.00 0.00 0.00 64 1014.2
20260504202210 79 293 6.0 0.0 0.00 0.00 0.00 64 1014.2
20260504201714 79 301 7.0 0.0 0.00 0.00 0.00 64 1014.2
20260504201314 80 141 6.0 0.0 0.00 0.00 0.00 64 1014.6
20260504200212 79 241 6.0 0.0 0.00 0.00 0.00 65 1014.6
20260504195711 79 124 4.0 0.0 0.00 0.00 0.00 64 1014.6
20260504195213 79 41 6.0 0.0 0.00 0.00 0.00 66 1014.9
20260504194715 79 171 6.0 0.0 0.00 0.00 0.00 65 1014.9
20260504194213 79 184 7.0 0.0 0.00 0.00 0.00 63 1014.9
20260504193711 79 316 8.0 0.0 0.00 0.00 0.00 64 1014.9
20260504193211 80 102 7.0 0.0 0.00 0.00 0.00 62 1014.9
20260504192712 80 102 7.0 0.0 0.00 0.00 0.00 62 1014.9
20260504192214 80 286 6.0 0.0 0.00 0.00 0.00 64 1014.9
20260504191710 80 330 7.0 0.0 0.00 0.00 0.00 63 1014.9
20260504191212 80 120 5.0 0.0 0.00 0.00 0.00 63 1015.2
20260504190712 79 171 5.0 0.0 0.00 0.00 0.00 62 1014.9
20260504190214 79 207 6.0 0.0 0.00 0.00 0.00 65 1015.2
20260504185714 78 127 7.0 0.0 0.00 0.00 0.00 67 1015.2
20260504185213 78 51 6.0 0.0 0.00 0.00 0.00 65 1015.2
20260504184712 79 15 7.0 0.0 0.00 0.00 0.00 62 1015.2
20260504184214 81 122 6.0 0.0 0.00 0.00 0.00 62 1015.2
20260504183714 81 147 6.0 0.0 0.00 0.00 0.00 62 1015.6
20260504183213 81 113 7.0 0.0 0.00 0.00 0.00 61 1015.6
20260504182714 81 290 5.0 0.0 0.00 0.00 0.00 62 1015.6
20260504182216 80 72 8.0 0.0 0.00 0.00 0.00 64 1015.6
20260504181711 80 194 8.0 0.0 0.00 0.00 0.00 62 1015.6
20260504181214 79 205 7.0 0.0 0.00 0.00 0.00 66 1015.9
20260504180714 79 176 5.0 0.0 0.00 0.00 0.00 65 1015.9
20260504180215 78 274 5.0 0.0 0.00 0.00 0.00 65 1015.9
20260504175713 78 115 4.0 0.0 0.00 0.00 0.00 66 1015.9
20260504175215 79 208 7.0 0.0 0.00 0.00 0.00 64 1015.9
20260504174714 80 112 7.0 0.0 0.00 0.00 0.00 63 1015.9
20260504174212 80 280 6.0 0.0 0.00 0.00 0.00 64 1015.9
20260504173711 80 189 6.0 0.0 0.00 0.00 0.00 62 1016.3
20260504173214 80 84 9.0 0.0 0.00 0.00 0.00 63 1015.9
20260504172713 79 123 9.0 0.0 0.00 0.00 0.00 65 1016.3
20260504172227 79 225 6.0 0.0 0.00 0.00 0.00 65 1016.3
20260504171726 79 118 5.0 0.0 0.00 0.00 0.00 65 1016.3
20260504171226 78 71 6.0 0.0 0.00 0.00 0.00 65 1016.3
20260504170726 77 170 6.0 0.0 0.00 0.00 0.00 66 1016.3
20260504170226 77 58 7.0 0.0 0.00 0.00 0.00 66 1016.3
20260504160226 73 184 4.0 0.0 0.00 0.00 0.00 74 1016.9
20260504150728 67 95 4.0 0.0 0.00 0.00 0.00 83 1017.3
20260504150226 67 118 6.0 0.0 0.00 0.00 0.00 83 1017.3
20260504141223 66 213 3.0 0.0 0.00 0.00 0.00 84 1017.3
20260504140724 66 103 4.0 0.0 0.00 0.00 0.00 84 1017.3
20260504140223 65 114 4.0 0.0 0.00 0.00 0.00 83 1017.3
20260504130723 63 182 4.0 0.0 0.00 0.00 0.00 84 1017.3
20260504130221 63 117 3.0 0.0 0.00 0.00 0.00 84 1017.3
20260504110719 62 159 2.0 0.0 0.00 0.00 0.00 84 1016.6
20260504110218 62 141 3.0 0.0 0.00 0.00 0.00 83 1016.9
20260504100218 62 155 3.0 0.0 0.00 0.00 0.00 82 1016.9
20260504081715 63 62 5.0 0.0 0.00 0.00 0.00 79 1017.6
20260504081216 63 232 3.0 0.0 0.00 0.00 0.00 79 1017.9
20260504080714 63 119 4.0 0.0 0.00 0.00 0.00 79 1017.6
20260504080214 63 155 5.0 0.0 0.00 0.00 0.00 79 1017.9
20260504070213 64 266 6.0 0.0 0.00 0.00 0.00 76 1018.6
20260504060213 65 130 5.0 0.0 0.00 0.00 0.00 73 1019.3
20260504050713 66 139 5.0 0.0 0.00 0.00 0.00 70 1019.6
20260504050211 66 177 4.0 0.0 0.00 0.00 0.00 69 1019.3
20260504045711 66 203 5.0 0.0 0.00 0.00 0.00 69 1019.3
20260504045214 67 180 5.0 0.0 0.00 0.00 0.00 68 1019.6
20260504044714 67 170 7.0 0.0 0.00 0.00 0.00 68 1019.6
20260504044213 67 105 7.0 0.0 0.00 0.00 0.00 68 1019.6
20260504043712 67 122 7.0 0.0 0.00 0.00 0.00 67 1019.6
20260504043211 67 148 6.0 0.0 0.00 0.00 0.00 67 1019.6
20260504042711 67 94 6.0 0.0 0.00 0.00 0.00 66 1019.6
20260504042213 67 111 9.0 0.0 0.00 0.00 0.00 65 1019.6
20260504041713 68 199 4.0 0.0 0.00 0.00 0.00 65 1019.6
20260504041212 68 160 4.0 0.0 0.00 0.00 0.00 65 1019.6
20260504040710 68 147 6.0 0.0 0.00 0.00 0.00 63 1019.6
20260504040211 68 337 6.0 0.0 0.00 0.00 0.00 64 1019.6
20260504035712 68 119 6.0 0.0 0.00 0.00 0.00 64 1019.6
20260504035213 67 163 3.0 0.0 0.00 0.00 0.00 65 1019.6
20260504034714 67 125 3.0 0.0 0.00 0.00 0.00 64 1019.6
20260504034212 67 169 7.0 0.0 0.00 0.00 0.00 65 1019.6
20260504033715 67 189 5.0 0.0 0.00 0.00 0.00 64 1019.6
20260504033214 66 128 5.0 0.0 0.00 0.00 0.00 66 1019.6
20260504032711 65 162 3.0 0.0 0.00 0.00 0.00 67 1019.6
20260504032210 64 129 4.0 0.0 0.00 0.00 0.00 68 1019.6
20260504031713 63 187 3.0 0.0 0.00 0.00 0.00 68 1019.3
20260504031211 63 133 3.0 0.0 0.00 0.00 0.00 68 1019.3
20260504030714 63 164 3.0 0.0 0.00 0.00 0.00 68 1019.6
20260504030212 63 200 3.0 0.0 0.00 0.00 0.00 67 1019.6
20260504025711 63 129 2.0 0.0 0.00 0.00 0.00 67 1019.3
20260504025211 64 157 2.0 0.0 0.00 0.00 0.00 66 1019.3
20260504024710 64 190 2.0 0.0 0.00 0.00 0.00 65 1019.3
20260504024213 63 126 2.0 0.0 0.00 0.00 0.00 66 1019.3
20260504023710 64 123 3.0 0.0 0.00 0.00 0.00 67 1019.3
20260504023214 64 190 2.0 0.0 0.00 0.00 0.00 66 1019.3
20260504022714 64 139 3.0 0.0 0.00 0.00 0.00 66 1019.3
20260504022214 64 202 2.0 0.0 0.00 0.00 0.00 67 1019.3
20260504021712 64 149 2.0 0.0 0.00 0.00 0.00 67 1019.6
20260504021212 64 166 2.0 0.0 0.00 0.00 0.00 64 1019.3
20260504020712 65 159 3.0 0.0 0.00 0.00 0.00 64 1019.3
20260504020213 65 188 2.0 0.0 0.00 0.00 0.00 62 1019.3
20260504015727 66 187 3.0 0.0 0.00 0.00 0.00 63 1019.3
20260504015217 66 189 2.0 0.0 0.00 0.00 0.00 61 1019.3
20260504014716 67 173 2.0 0.0 0.00 0.00 0.00 60 1019.3
20260504014217 67 165 2.0 0.0 0.00 0.00 0.00 60 1019.3
20260504013719 68 198 2.0 0.0 0.00 0.00 0.00 58 1019.0
20260504013216 68 197 2.0 0.0 0.00 0.00 0.00 58 1019.0
20260504012718 68 187 2.0 0.0 0.00 0.00 0.00 56 1019.0
20260504012218 69 206 3.0 0.0 0.00 0.00 0.00 57 1019.0
20260504011717 69 191 2.0 0.0 0.00 0.00 0.00 57 1019.0
20260504011215 70 163 2.0 0.0 0.00 0.00 0.00 56 1019.0
20260504010716 70 194 2.0 0.0 0.00 0.00 0.00 54 1019.0
20260504010216 70 137 3.0 0.0 0.00 0.00 0.00 54 1018.6
20260504005718 71 196 2.0 0.0 0.00 0.00 0.00 53 1019.0
20260504005216 71 186 3.0 0.0 0.00 0.00 0.00 53 1019.0
20260504004717 72 191 2.0 0.0 0.00 0.00 0.00 51 1019.0
20260504004215 72 124 3.0 0.0 0.00 0.00 0.00 49 1019.0
20260504003716 72 140 3.0 0.0 0.00 0.00 0.00 48 1019.0
20260504003217 73 195 4.0 0.0 0.00 0.00 0.00 47 1019.0
20260504002716 73 194 4.0 0.0 0.00 0.00 0.00 46 1019.0
20260504002216 73 200 3.0 0.0 0.00 0.00 0.00 45 1019.0
20260504001716 74 135 3.0 0.0 0.00 0.00 0.00 45 1019.0
20260504001217 74 133 5.0 0.0 0.00 0.00 0.00 43 1019.0
20260504000715 74 128 4.0 0.0 0.00 0.00 0.00 43 1019.3
20260504000214 74 166 5.0 0.0 0.00 0.00 0.00 44 1019.3
20260503235715 75 157 4.0 0.0 0.00 0.00 0.00 43 1019.3
20260503235215 75 180 5.0 0.0 0.00 0.00 0.00 43 1019.3
20260503234715 75 119 3.0 0.0 0.00 0.00 0.00 45 1019.3
20260503234212 75 204 4.0 0.0 0.00 0.00 0.00 41 1019.3
20260503233714 75 144 4.0 0.0 0.00 0.00 0.00 41 1019.3
20260503233214 75 121 4.0 0.0 0.00 0.00 0.00 41 1019.6
20260503232714 76 216 4.0 0.0 0.00 0.00 0.00 41 1019.6
20260503232217 76 172 5.0 0.0 0.00 0.00 0.00 39 1019.6
20260503231714 76 174 6.0 0.0 0.00 0.00 0.00 40 1019.3